Coffeyville, KS

9:34 PM CDT on April 28, 2017 (GMT -0500)
Coffeyville Municipal

Weather History for KCFV - October, 2011

Change the Weather History Date:

Sunday, October 9, 2011

  Actual Average Record
Temperature  
Mean Temperature 75 °F -  
Max Temperature 84 °F 71 °F 87 °F (2014)
Min Temperature 66 °F 47 °F 23 °F (2000)
Cooling Degree Days 10    
Growing Degree Days 25 (Base 50)    
Moisture  
Dew Point 55 °F    
Average Humidity 53    
Maximum Humidity 73    
Minimum Humidity 39    
Precipitation  
Precipitation 0.00 in - - ()
Sea Level Pressure  
Sea Level Pressure 30.05 in    
Wind  
Wind Speed 11 mph (SE)    
Max Wind Speed 18 mph    
Max Gust Speed 25 mph    
Visibility 10 miles    
Events      
Averages and records for this station are not official NWS values.
T = Trace of Precipitation, MM = Missing Value Source: NWS Daily Summary

Daily Weather History Graph

Daily Weather History Graph

Search for Another Location

Airport or City:

Trip Planner

Search our weather history database for the weather conditions in past years. The results will help you decide how hot, cold, wet, or windy it might be!

Date:

Astronomy

Oct. 09, 2011 Rise Set
Actual Time 7:24 AM CDT 6:54 PM CDT
Civil Twilight 6:58 AM CDT 7:20 PM CDT
Nautical Twilight 6:28 AM CDT 7:50 PM CDT
Astronomical Twilight 5:58 AM CDT 8:20 PM CDT
Moon 5:30 PM CDT (10/9) 5:12 AM CDT (10/9)
Length of Visible Light 12h 21m
Length of Day
11h 29m
Waxing Gibbous, 95% of the Moon is Illuminated
Oct 9
Waxing Gibbous
Oct 11
Full
Oct 19
Last Quarter
Oct 26
New
Nov 2
First Quarter

Hourly Weather History & Observations

Time (CDT) Temp. Heat Index Dew Point Humidity Pressure Visibility Wind Dir Wind Speed Gust Speed Precip Events Conditions
12:52 AM 72.0 °F - 55.0 °F 55% 30.06 in 10.0 mi SE 10.4 mph - N/A   Mostly Cloudy
1:52 AM 71.1 °F - 55.0 °F 57% 30.06 in 10.0 mi SE 10.4 mph - N/A   Scattered Clouds
2:52 AM 70.0 °F - 55.0 °F 59% 30.07 in 10.0 mi SE 6.9 mph - N/A   Scattered Clouds
3:52 AM 70.0 °F - 54.0 °F 57% 30.06 in 10.0 mi SE 12.7 mph - N/A   Scattered Clouds
4:52 AM 70.0 °F - 54.0 °F 57% 30.06 in 10.0 mi SE 12.7 mph 19.6 mph N/A   Mostly Cloudy
5:52 AM 69.1 °F - 55.0 °F 61% 30.08 in 10.0 mi SE 13.8 mph 20.7 mph N/A   Clear
6:52 AM 68.0 °F - 55.9 °F 65% 30.08 in 10.0 mi SE 11.5 mph - N/A   Partly Cloudy
7:52 AM 68.0 °F - 55.9 °F 65% 30.09 in 10.0 mi SE 11.5 mph - N/A   Mostly Cloudy
8:52 AM 71.1 °F - 55.9 °F 59% 30.11 in 10.0 mi SE 18.4 mph 24.2 mph N/A   Mostly Cloudy
9:52 AM 73.9 °F - 57.0 °F 55% 30.11 in 10.0 mi SSE 15.0 mph 23.0 mph N/A   Clear
10:52 AM 77.0 °F - 57.9 °F 52% 30.10 in 10.0 mi SSE 17.3 mph 25.3 mph N/A   Clear
11:52 AM 79.0 °F - 57.9 °F 48% 30.09 in 10.0 mi SSE 18.4 mph 25.3 mph N/A   Scattered Clouds
12:52 PM 81.0 °F 81.0 °F 57.0 °F 44% 30.07 in 10.0 mi South 15.0 mph 24.2 mph N/A   Mostly Cloudy
2:52 PM 82.0 °F 81.6 °F 55.9 °F 41% 30.02 in 10.0 mi SSE 10.4 mph 19.6 mph N/A   Partly Cloudy
3:52 PM 81.0 °F 80.5 °F 54.0 °F 39% 30.00 in 10.0 mi SSE 11.5 mph 19.6 mph N/A   Scattered Clouds
4:52 PM 81.0 °F 80.5 °F 54.0 °F 39% 30.00 in 10.0 mi SSE 13.8 mph 25.3 mph N/A   Mostly Cloudy
5:52 PM 79.0 °F - 52.0 °F 39% 30.00 in 10.0 mi SE 11.5 mph - N/A   Partly Cloudy
6:52 PM 75.9 °F - 50.0 °F 40% 30.00 in 10.0 mi SE 9.2 mph - N/A   Clear
7:52 PM 73.0 °F - 52.0 °F 48% 30.01 in 10.0 mi ESE 5.8 mph - N/A   Partly Cloudy
8:52 PM 72.0 °F - 52.0 °F 49% 30.01 in 10.0 mi ESE 5.8 mph - N/A   Clear
9:52 PM 72.0 °F - 52.0 °F 49% 30.02 in 10.0 mi ESE 6.9 mph - N/A   Overcast
10:52 PM 70.0 °F - 55.9 °F 61% 30.03 in 10.0 mi Calm Calm - N/A   Overcast
11:52 PM 66.9 °F - 57.9 °F 73% 30.04 in 10.0 mi West 4.6 mph - N/A   Mostly Cloudy